TimeCST,TemperatureF,Dew PointF,Humidity,Sea Level PressureIn,VisibilityMPH,Wind Direction,Wind SpeedMPH,Gust SpeedMPH,PrecipitationIn,Events,Conditions,WindDirDegrees,DateUTC
12:53 AM,42.1,30.0,62,30.51,10.0,North,4.6,-,N/A,,Clear,350,2012-11-13 06:53:00
1:53 AM,37.0,30.0,76,30.51,10.0,NNW,3.5,-,N/A,,Clear,340,2012-11-13 07:53:00
2:53 AM,35.1,27.0,72,30.50,10.0,North,3.5,-,N/A,,Clear,350,2012-11-13 08:53:00
3:53 AM,36.0,27.0,70,30.50,10.0,North,5.8,-,N/A,,Clear,10,2012-11-13 09:53:00
4:53 AM,35.1,27.0,72,30.49,10.0,NNE,4.6,-,N/A,,Clear,20,2012-11-13 10:53:00
5:53 AM,36.0,27.0,70,30.50,10.0,North,4.6,-,N/A,,Clear,10,2012-11-13 11:53:00
6:53 AM,33.1,27.0,78,30.52,10.0,Calm,Calm,-,N/A,,Clear,0,2012-11-13 12:53:00
7:53 AM,37.0,30.0,76,30.53,10.0,North,4.6,-,N/A,,Clear,10,2012-11-13 13:53:00
8:53 AM,44.1,33.1,65,30.54,10.0,ENE,5.8,-,N/A,,Clear,60,2012-11-13 14:53:00
9:53 AM,51.1,28.9,43,30.53,10.0,East,9.2,-,N/A,,Clear,90,2012-11-13 15:53:00
10:53 AM,53.1,26.1,35,30.51,10.0,East,9.2,-,N/A,,Clear,100,2012-11-13 16:53:00
11:53 AM,55.9,25.0,30,30.48,10.0,East,6.9,-,N/A,,Clear,90,2012-11-13 17:53:00
12:53 PM,55.9,24.1,29,30.44,10.0,ESE,9.2,-,N/A,,Clear,110,2012-11-13 18:53:00
1:53 PM,55.9,24.1,29,30.40,10.0,ESE,4.6,-,N/A,,Clear,120,2012-11-13 19:53:00
2:53 PM,57.0,23.0,27,30.39,10.0,ENE,4.6,-,N/A,,Clear,70,2012-11-13 20:53:00
3:53 PM,55.9,24.1,29,30.39,10.0,Calm,Calm,-,N/A,,Clear,0,2012-11-13 21:53:00
4:53 PM,54.0,26.1,34,30.38,10.0,East,3.5,-,N/A,,Clear,80,2012-11-13 22:53:00
5:53 PM,52.0,27.0,38,30.38,10.0,Calm,Calm,-,N/A,,Clear,0,2012-11-13 23:53:00
6:53 PM,50.0,27.0,41,30.38,10.0,Calm,Calm,-,N/A,,Clear,0,2012-11-14 00:53:00
7:53 PM,51.1,30.0,44,30.39,10.0,NE,3.5,-,N/A,,Overcast,40,2012-11-14 01:53:00
8:53 PM,50.0,32.0,50,30.40,10.0,Calm,Calm,-,N/A,,Overcast,0,2012-11-14 02:53:00
9:53 PM,52.0,33.1,49,30.39,10.0,ESE,5.8,-,N/A,,Overcast,110,2012-11-14 03:53:00
10:53 PM,52.0,32.0,47,30.40,10.0,Calm,Calm,-,N/A,,Overcast,0,2012-11-14 04:53:00
11:53 PM,51.1,32.0,48,30.39,10.0,NE,3.5,-,N/A,,Overcast,50,2012-11-14 05:53:00